RH
16 20 22 20 21 23 25 28 26 22 25 26 27 31 33 35 35 33 32 32 33 32 29 32 34 34 34 36 40 43 44 47 50 52 54 53 53 52 51 51 52 54 55 57 59 60 61 61 60 60 60 60 59 57 56 53 50 48 46 45 44 42 40 38 38 40 42 42 41 40 38 34 30 28 28 28 27 26 26 27 28 30 32 33 29 26
17 21 21 18 20 25 28 30 27 25 27 27 28 31 32 32 28 27 31 31 33 35 31 32 38 39 39 41 44 45 47 51 54 55 57 54 53 53 52 53 55 58 59 61 62 62 62 62 62 63 62 59 55 52 50 47 45 45 45 45 44 44 42 39 39 40 42 42 41 39 36 34 32 31 31 30 30 31 31 28 27 26 28 29 27 27
21 19 19 20 23 26 29 32 29 28 29 28 31 33 32 32 29 28 31 32 35 36 32 34 40 42 43 46 48 49 51 54 55 55 55 54 53 54 55 57 59 61 62 63 64 65 65 66 65 63 59 55 51 49 49 50 50 50 48 44 41 39 37 36 36 37 39 39 39 40 39 38 40 41 41 40 40 43 45 41 36 31 28 28 28 30
20 17 19 21 23 23 25 32 34 32 31 31 32 33 33 34 33 31 30 32 37 39 38 37 41 46 49 50 52 54 55 55 54 54 55 55 55 57 59 61 63 65 66 67 68 68 69 67 62 57 54 52 52 52 52 52 48 44 42 39 37 36 37 39 39 39 40 39 41 45 45 43 44 46 47 47 45 45 47 48 48 42 35 34 33 32
20 20 23 24 26 24 24 31 34 32 31 33 34 32 33 34 36 35 34 35 37 42 45 41 42 50 53 54 55 54 54 55 54 55 56 57 59 62 64 65 68 69 70 70 70 69 66 62 57 54 53 53 52 51 49 46 44 43 41 37 35 36 40 44 42 38 39 41 43 46 45 43 44 46 47 49 48 45 43 44 46 45 44 45 42 36
22 23 24 24 27 28 26 27 28 29 29 32 35 33 33 36 37 37 38 40 40 43 46 44 46 52 53 55 56 54 55 56 56 57 58 61 64 66 69 71 72 72 72 71 68 65 61 57 55 54 54 52 49 47 44 43 43 42 38 33 33 37 44 47 43 40 41 44 48 52 53 53 53 53 52 53 54 51 48 47 46 46 49 52 48 42
22 23 26 26 29 30 29 26 26 29 28 29 33 34 37 39 38 38 38 43 46 45 48 49 49 49 50 55 56 55 58 58 57 60 63 66 68 70 72 73 73 71 69 67 64 62 60 57 56 55 53 50 48 46 41 37 35 33 31 33 38 44 50 52 49 46 44 46 52 59 65 67 67 66 63 63 62 59 56 56 57 57 58 57 53 48
22 24 28 29 30 30 28 26 27 28 28 29 32 34 39 38 36 38 38 44 48 46 52 54 49 47 47 52 57 58 62 63 61 65 67 68 69 70 71 71 69 67 65 63 62 60 60 59 57 56 54 52 48 41 34 30 30 29 29 36 43 47 51 54 53 52 50 50 54 62 68 70 71 72 70 68 65 63 63 65 68 70 67 63 58 53
23 22 24 26 29 28 26 26 28 29 29 31 34 36 40 37 35 38 39 44 45 44 53 55 52 53 50 52 61 63 68 71 67 68 68 67 69 69 69 68 66 64 63 62 62 61 60 59 57 56 54 50 41 33 28 27 29 30 30 39 47 48 50 53 55 56 56 56 56 60 65 65 67 71 72 69 64 63 64 67 70 73 72 68 65 61
23 22 24 26 27 27 27 29 30 30 29 32 35 36 36 35 35 36 38 41 41 44 53 54 54 60 57 58 67 68 73 76 71 70 70 69 70 68 67 66 64 63 63 63 64 61 58 57 57 54 47 39 32 28 28 28 32 36 37 44 48 48 50 52 57 64 64 61 59 58 60 60 60 65 68 66 64 62 63 63 64 68 70 71 69 67
24 25 28 28 27 26 28 30 30 30 29 32 37 36 32 32 34 35 37 40 42 48 54 50 50 59 63 65 70 70 73 75 71 70 70 68 67 67 66 65 64 64 63 63 61 58 56 55 51 45 36 30 29 30 32 34 39 44 47 51 53 54 55 54 62 73 72 66 62 58 58 59 59 63 67 66 64 64 64 62 62 65 67 70 70 68
26 27 29 28 26 27 29 30 31 33 33 34 39 38 32 32 33 33 38 43 45 48 51 49 49 57 64 68 71 71 70 70 69 68 66 66 65 65 65 65 65 65 62 60 58 54 51 45 38 32 29 29 34 37 37 38 42 47 52 57 60 60 60 60 68 77 76 71 67 63 62 63 63 67 71 70 68 69 70 68 66 65 66 68 70 70
25 27 29 28 26 29 31 31 32 35 36 36 39 40 40 43 43 41 45 51 50 47 47 50 53 56 59 64 71 72 69 67 67 66 66 67 67 65 66 67 67 66 64 61 57 51 44 36 29 27 29 32 37 39 39 41 45 52 57 61 63 62 64 69 74 76 76 73 72 73 74 74 74 75 75 74 74 74 76 75 71 67 67 69 70 70
28 29 30 29 28 30 33 33 33 35 37 39 42 45 47 52 58 59 60 63 59 51 48 50 57 61 58 62 72 72 68 66 65 66 68 69 70 69 69 70 69 67 64 59 53 47 38 30 26 28 31 33 34 37 40 45 50 55 58 58 61 63 68 73 73 73 75 73 73 78 83 85 85 83 80 77 77 77 78 78 75 71 71 72 71 69
33 32 30 30 30 34 38 37 36 38 40 43 47 50 49 53 62 68 70 70 65 58 55 54 59 66 62 62 68 67 65 67 66 69 72 73 72 72 72 72 69 65 59 53 47 40 32 26 28 34 35 33 34 37 42 48 53 56 55 56 59 62 66 69 69 69 70 69 71 77 84 88 87 84 82 80 78 78 78 78 77 75 74 73 71 68
34 33 32 32 34 37 39 38 38 41 44 46 49 52 53 54 58 63 63 65 68 72 73 67 62 62 62 63 65 66 67 67 70 73 74 72 71 72 71 68 64 59 54 48 41 34 28 25 30 38 38 34 35 39 44 51 57 59 57 57 59 62 65 67 68 69 70 71 72 77 84 89 87 82 80 80 78 77 76 77 78 79 78 75 72 68
34 33 33 34 38 39 39 40 41 43 47 49 49 49 51 53 57 64 64 64 75 82 77 70 65 60 64 70 68 69 72 71 74 75 70 69 71 70 67 64 60 55 49 43 37 31 27 26 33 40 38 35 37 41 45 51 58 62 60 59 61 64 65 68 71 71 73 73 73 77 85 89 86 83 81 79 77 75 73 75 77 79 79 77 74 70
37 34 32 36 40 40 38 39 41 45 47 49 51 50 51 54 58 67 74 76 85 89 75 68 71 69 71 76 72 69 73 73 73 71 69 72 72 69 66 63 58 52 46 40 35 29 27 31 40 43 38 36 38 43 46 52 59 62 63 63 62 62 65 71 76 78 77 77 76 78 84 87 84 81 81 78 74 71 69 72 75 77 77 76 74 71
39 36 34 38 41 40 40 41 42 46 47 46 49 51 54 61 63 68 80 86 91 95 83 70 70 72 74 77 75 73 75 76 75 74 74 74 71 69 67 62 56 51 46 40 35 31 32 39 45 43 39 38 40 44 48 54 60 61 63 65 64 62 65 71 78 81 81 81 80 79 82 83 81 79 78 76 74 71 69 70 74 76 74 72 72 72
41 40 40 40 41 40 41 42 43 45 46 47 50 53 56 63 66 69 77 85 92 97 92 79 73 75 77 76 76 78 80 81 81 78 75 73 71 69 66 59 54 50 45 41 36 34 37 43 45 43 42 43 43 45 51 59 63 63 64 66 66 64 65 71 77 79 79 79 80 80 79 79 78 76 75 75 74 72 71 71 72 72 69 67 71 77
42 45 43 38 38 40 41 44 46 46 49 54 56 58 62 64 67 70 71 77 89 96 96 93 84 77 76 77 77 79 81 81 80 76 74 73 70 66 62 58 53 48 44 42 38 38 42 45 45 44 46 49 49 49 56 64 66 65 66 67 68 67 67 72 77 77 76 77 77 77 76 76 77 76 74 74 73 72 71 70 69 68 66 68 75 82
41 45 45 41 41 41 40 43 47 49 51 55 58 60 65 69 72 81 79 73 80 87 90 95 92 81 76 76 77 79 79 78 76 74 72 69 66 62 59 55 50 46 44 42 41 41 45 46 46 47 49 51 53 54 59 66 68 67 68 68 68 69 70 75 79 77 76 76 76 76 77 78 77 74 73 72 71 69 68 68 68 69 71 76 79 83
41 46 48 45 43 41 41 42 45 50 50 50 55 57 62 67 70 83 90 80 77 81 84 92 96 87 77 75 77 79 78 75 75 73 69 64 63 62 57 51 47 45 43 41 42 44 47 49 49 50 50 51 54 55 59 65 69 70 69 68 67 67 70 77 81 79 76 76 77 79 79 78 74 71 68 68 68 68 69 71 72 73 78 82 84 84
43 49 47 41 37 35 38 40 42 49 49 46 51 54 59 65 68 75 82 82 85 87 85 93 95 83 75 75 76 77 77 76 74 70 66 64 64 61 55 48 44 42 41 42 44 47 49 51 51 51 52 52 54 56 57 62 70 71 68 67 67 67 72 80 81 78 78 80 80 78 75 73 71 70 68 67 68 68 70 75 76 76 79 83 84 83
42 48 48 48 48 44 42 43 42 44 46 47 51 55 61 67 70 71 72 81 93 90 85 94 92 75 71 76 76 76 78 77 71 67 66 65 62 57 51 47 43 42 42 43 46 48 51 53 53 53 54 54 55 56 56 60 67 68 65 65 65 68 75 80 79 79 82 81 78 76 76 74 73 73 70 67 66 64 66 73 76 76 77 79 81 81
43 47 50 54 61 63 61 59 55 50 48 48 51 55 61 66 69 71 75 86 94 88 84 92 88 74 71 75 76 74 73 71 68 67 66 62 58 55 50 47 45 43 43 45 50 54 56 58 58 57 56 55 55 56 56 60 64 64 63 64 65 70 78 80 79 82 83 80 79 81 81 77 73 71 68 66 65 63 66 70 72 73 75 77 81 82
47 50 50 51 58 62 61 58 55 54 52 52 53 55 57 61 66 72 78 84 86 84 81 81 83 84 80 78 77 73 69 69 67 64 63 61 58 55 52 50 48 46 45 49 56 59 59 59 60 60 59 57 57 56 56 61 65 64 63 62 65 74 81 81 81 83 82 81 83 85 80 75 72 71 68 67 67 69 74 74 72 73 77 81 84 83
47 47 48 51 54 55 56 53 51 52 54 54 56 58 56 58 65 72 78 79 79 84 81 75 82 91 84 77 78 75 72 71 66 63 64 62 58 53 52 51 50 49 51 55 61 63 60 58 60 60 58 58 58 57 57 62 66 65 62 61 66 77 83 82 82 83 83 85 87 85 81 77 78 77 75 73 72 74 77 77 76 77 81 84 84 82
46 48 50 52 53 54 53 51 49 50 52 52 54 57 56 58 64 71 76 78 80 88 89 82 84 86 79 75 77 74 72 71 66 63 61 57 53 49 49 51 54 58 60 62 65 68 67 64 61 57 55 57 58 58 60 64 66 63 61 62 71 82 85 84 84 85 85 88 88 85 82 80 82 82 79 78 77 75 76 78 81 83 85 84 83 81
45 51 56 55 54 53 50 50 51 51 50 50 51 53 53 56 61 67 74 80 83 87 87 84 83 79 75 75 75 72 70 67 61 57 54 51 49 47 50 56 62 65 65 66 68 72 72 68 63 59 57 57 58 60 63 66 67 63 61 65 78 87 87 86 87 88 88 87 85 84 82 82 84 85 83 83 82 80 79 82 87 90 90 87 86 85
43 50 57 57 55 52 49 49 51 50 51 51 50 50 53 57 64 70 77 83 87 86 82 81 82 79 74 73 71 67 64 59 52 50 50 48 49 51 57 64 69 70 69 68 70 72 72 67 63 61 60 59 60 62 62 64 65 62 63 74 86 91 90 90 91 90 89 87 86 86 86 85 86 89 91 91 91 89 87 89 94 95 93 91 91 91
48 51 55 58 59 54 49 50 51 49 50 52 54 56 58 64 73 78 80 83 87 86 83 82 84 81 74 69 64 57 54 53 50 49 51 52 55 61 64 68 70 71 72 72 73 74 70 64 62 63 61 61 62 61 62 64 63 62 70 85 94 94 93 95 94 92 91 91 91 92 92 92 93 96 98 98 98 97 96 96 97 98 97 97 97 97
52 52 56 63 64 56 51 53 55 54 55 60 63 65 66 69 73 75 76 79 80 81 84 85 83 78 69 62 57 52 50 51 51 52 56 59 63 66 68 69 70 72 74 76 76 72 66 62 63 62 60 62 62 61 63 64 63 69 81 92 96 96 97 97 96 96 95 94 94 96 98 100 100 101 101 101 100 101 100 100 99 100 101 100 98 98
55 57 61 67 67 63 59 57 56 60 67 69 65 65 70 72 73 73 76 77 75 74 79 80 74 66 59 54 51 50 49 49 50 54 61 65 68 70 71 71 72 74 78 77 72 66 63 62 62 60 61 63 62 63 64 64 69 82 92 96 98 99 98 97 97 97 97 98 98 99 100 101 101 101 101 100 101 101 101 100 100 101 100 99 98 98
55 58 63 67 69 67 63 64 71 73 70 67 64 64 68 69 70 72 72 71 73 75 76 73 63 54 50 48 47 47 49 51 52 56 62 67 70 73 73 74 76 79 78 73 68 64 60 57 58 61 64 63 60 62 65 69 80 93 97 98 100 100 98 97 97 96 98 99 100 100 100 100 100 100 100 100 101 101 101 101 100 100 99 99 99 100
56 61 65 68 70 68 64 73 83 75 62 62 67 68 68 70 73 75 72 70 73 74 69 60 52 47 46 47 46 48 54 58 56 55 60 67 71 73 76 77 78 77 72 66 62 58 52 50 55 60 60 57 57 62 71 82 91 97 99 101 101 99 98 97 96 96 98 98 99 99 99 100 100 100 100 100 101 101 101 100 100 100 100 100 100 100
57 64 69 71 73 75 75 77 76 67 64 71 74 71 71 73 72 74 76 73 67 62 56 51 48 48 47 47 49 53 58 60 58 55 58 62 63 66 71 70 67 65 59 54 52 49 45 46 52 55 53 52 59 70 84 93 95 96 100 102 101 100 98 97 97 98 97 97 98 99 99 99 100 100 100 101 101 101 101 101 101 100 100 100 99 100
58 65 73 78 78 78 81 80 77 75 76 77 74 69 69 70 67 66 67 62 54 49 48 48 48 48 47 48 53 56 59 62 62 58 52 50 49 51 55 56 55 51 45 42 42 42 43 46 50 50 50 58 72 87 95 95 93 97 102 101 99 100 99 98 99 99 99 99 100 100 100 100 101 101 101 101 101 101 100 100 100 100 100 100 99 99
62 66 71 77 78 79 84 88 88 86 80 74 71 68 66 68 64 58 56 52 48 48 49 48 48 48 48 50 53 55 59 66 63 50 41 41 42 41 43 44 42 37 33 35 41 43 45 48 50 53 61 77 91 97 96 94 95 100 102 99 97 97 98 99 101 100 101 101 101 101 102 101 101 101 100 100 100 99 99 99 100 99 98 96 93 91
66 70 71 74 76 78 83 87 87 85 80 74 71 69 65 60 54 57 67 63 50 46 48 48 48 48 48 50 52 54 57 61 56 45 39 39 36 34 36 35 30 30 36 42 46 47 48 53 60 70 84 95 98 96 95 97 99 101 100 98 96 96 98 100 100 101 102 102 101 102 101 100 100 100 99 99 99 99 98 97 94 91 87 83 80 78
67 72 73 75 76 78 82 85 84 82 79 74 71 68 61 53 52 65 77 67 48 44 47 48 49 50 47 45 44 43 40 41 44 42 39 36 30 29 33 32 32 40 48 49 49 53 61 72 84 93 98 97 96 96 97 99 101 101 99 96 96 97 99 100 100 101 102 101 100 100 100 100 100 99 98 97 94 91 88 85 82 79 76 75 75 75
67 72 74 77 78 78 79 80 79 77 73 70 69 62 56 59 66 68 62 50 42 40 39 39 40 41 38 33 31 30 28 30 34 34 31 30 29 30 34 39 46 54 57 58 64 75 86 94 98 99 98 97 98 99 99 99 101 101 97 95 96 97 99 101 101 101 101 101 101 100 99 97 94 91 88 84 80 79 78 79 81 82 82 82 82 84
68 71 75 78 78 77 79 85 89 84 74 70 68 62 58 63 66 57 46 40 36 32 28 28 28 28 28 27 26 26 26 26 27 26 26 30 36 42 51 60 66 71 75 81 88 95 98 97 96 97 99 100 101 100 99 101 102 99 96 96 97 98 100 101 102 101 101 100 97 93 89 86 82 80 79 78 78 81 84 88 92 93 93 94 94 95
68 71 78 82 83 85 89 93 92 84 76 71 67 61 59 57 52 45 38 34 30 27 26 25 24 24 26 27 26 25 24 25 25 26 32 45 59 71 79 84 87 91 94 97 98 98 96 95 96 99 101 100 100 100 100 101 101 98 96 96 97 98 100 101 101 101 97 91 86 82 79 78 78 79 80 85 90 93 96 98 98 97 98 98 98 97
67 67 72 77 82 85 85 83 78 74 71 68 62 57 55 50 42 36 32 30 28 28 27 25 25 26 26 25 24 23 24 24 27 38 56 75 88 93 94 95 97 98 98 99 98 97 96 97 99 100 99 99 99 99 100 100 99 97 96 97 97 98 99 100 99 94 88 83 81 80 80 81 82 84 88 92 96 99 100 100 98 97 98 98 98 98
63 61 64 68 71 70 67 66 66 66 64 61 57 53 49 42 36 33 31 30 29 28 27 26 26 26 25 25 23 22 24 28 38 58 81 94 96 96 97 97 98 98 97 97 96 96 97 100 100 98 97 98 99 100 100 100 98 97 97 98 98 99 99 98 92 84 81 82 84 84 85 86 87 90 92 93 95 98 99 98 97 97 98 98 98 98
59 59 62 63 65 66 65 64 64 65 64 60 54 47 42 39 37 35 32 30 29 28 27 26 25 25 23 22 23 25 30 40 55 74 88 94 94 95 95 95 96 96 95 94 95 96 98 99 97 95 96 99 100 99 99 98 98 98 98 98 98 99 99 94 84 80 83 87 88 89 89 89 88 89 89 90 93 96 96 95 95 96 96 97 99 98
60 61 63 63 64 66 65 61 60 62 61 57 50 45 43 42 40 35 31 29 28 28 25 23 25 25 22 21 25 31 39 52 66 78 86 91 92 91 91 93 95 94 93 94 97 98 97 94 92 93 95 97 97 97 97 97 98 99 100 99 98 97 95 87 80 81 87 90 91 91 89 87 88 88 88 90 93 94 93 93 94 95 96 99 100 98
61 62 63 63 63 63 62 59 59 59 55 50 47 46 45 44 40 35 31 28 27 27 25 24 24 24 24 26 31 37 47 59 70 78 84 88 88 87 87 91 94 93 93 95 97 96 94 92 91 92 93 94 94 94 95 97 99 100 99 97 94 91 87 81 79 82 86 88 87 86 86 87 90 90 90 92 93 93 93 94 93 91 94 99 100 98
61 64 64 67 70 70 67 66 66 66 60 52 48 48 48 45 40 34 31 30 28 25 24 25 23 21 24 30 36 43 52 62 70 77 82 84 84 84 85 88 92 93 93 94 96 96 94 92 91 92 93 92 91 92 94 96 98 97 95 93 90 87 81 78 79 81 83 83 82 80 82 89 91 91 92 93 94 94 94 95 93 89 90 96 97 96
64 66 67 71 74 74 71 69 70 68 61 52 50 50 48 44 39 35 32 30 27 24 25 27 25 23 24 31 40 49 56 61 68 75 79 81 82 83 84 87 90 90 91 94 96 96 94 93 92 92 93 92 92 94 95 96 95 93 90 88 88 85 80 77 78 80 79 78 77 76 81 88 90 90 91 92 94 95 94 93 90 88 89 93 93 91